Terminal Aerodrome Forecast
Issued by NWS

Home | Current Version | Previous Version | Text Only | Print | Product List | Glossary On
Versions: 1 2 3 4 5 6 7 8 9 10 11 12 13 14 15
000
FTAK31 PAFA 232336
TAFAOM
TAF
PAOM 232336Z 2400/2424 04008KT P6SM BKN025 BKN050 BKN100
     FM240600 36007KT P6SM SCT050 SCT100
     FM241200 32005KT P6SM FEW250=

USA.gov is the U.S. government's official web portal to all federal, state and local government web resources and services.